User: anonymous
Location: Caltech
(34.1382°N, 118.1253°W)
Time: 22:51:33
(UTC-07:00)
Language:

Iridium 12 - Orbit

View from above orbital plane
View from above orbital plane
View from above satellite
View from above satellite

Ground track
Ground track

The orbit data is extracted from the following two-line orbital elements,

1 24837U 97030B   14109.51673999  .00000459  00000-0  15697-3 0  7994
2 24837 086.3931 112.7885 0002296 103.1866 009.2150 14.34216050881440
Epoch (UTC): 19 April 2014 12:24:06
Eccentricity: 0.0002296
inclination: 86.3931°
perigee height: 776 km
apogee height: 779 km
right ascension of ascending node: 112.7885°
argument of perigee: 103.1866°
revolutions per day: 14.34216050
mean anomaly at epoch: 9.2150°
orbit number at epoch: 88144

The dashed part of the orbit path shows where the satellite is in the earth's shadow,  

DLR